Location: Lombard
(41.8800°N, 88.0080°W)
Time: 23:19:39
(UTC-05:00)

Tiros 1 - Pass Details

Date: 04 February 2023
Orbit: 628 x 662 km, 48.4° (Epoch: 20 March)

Event Time Altitude Azimuth Distance (km) Brightness Sun altitude
Rises 01:30:04 0° 266° (W) 2,908 - -58.7°
Reaches altitude 10° 01:32:28 10° 273° (W) 2,005 - -58.4°
Maximum altitude 01:36:53 44° 346° (NNW) 874 - -57.8°
Drops below altitude 10° 01:41:21 10° 59° (ENE) 2,025 - -57.2°
Sets 01:43:47 0° 66° (ENE) 2,941 - -56.9°
